Kuchera_Ratio
0.0 0.0 0.0 0.0 0.0 0.0 0.0 0.0 0.0 0.0 0.0 0.0 0.0 0.0 0.0 0.0 0.0 0.0 0.0 0.0 0.0 0.0 0.0 0.0 0.0 0.0 0.0 0.0 0.0 0.0 0.0 0.0 0.0 0.0 0.0 0.0 0.0 0.0 0.0 0.0 0.0 0.0 0.0
0.0 0.0 0.0 0.0 0.0 0.0 0.0 0.0 0.0 0.0 0.0 0.0 0.0 0.0 0.0 0.0 0.0 0.0 0.0 0.0 0.0 0.0 0.0 0.0 0.0 0.0 0.0 0.0 0.0 0.0 0.0 0.0 0.0 0.0 0.0 0.0 0.0 0.0 0.0 0.0 0.0 0.0 0.0
0.0 0.0 0.0 0.0 0.0 0.0 0.0 0.0 0.0 0.0 0.0 0.0 0.0 0.0 0.0 0.0 0.0 0.0 0.0 0.0 0.0 0.0 0.0 0.0 0.0 0.0 0.0 0.0 0.0 0.0 0.0 0.0 0.0 0.0 0.0 0.0 0.0 0.0 0.0 0.0 0.0 0.0 0.0
0.0 0.0 0.0 0.0 0.0 0.0 0.0 0.0 0.0 0.0 0.0 0.0 0.0 0.0 0.0 0.0 0.0 0.0 0.0 0.0 0.0 0.0 0.0 0.0 0.0 0.0 0.0 0.0 0.0 0.0 0.0 0.0 0.0 0.0 0.0 0.0 0.0 0.0 0.0 0.0 0.0 0.0 0.0
0.0 0.0 0.0 0.0 0.0 0.0 0.0 0.0 0.0 0.0 0.0 0.0 0.0 0.0 0.0 0.0 0.0 0.0 0.0 0.0 0.0 0.0 0.0 0.0 0.0 0.0 0.0 0.0 0.0 0.0 0.0 0.0 0.0 0.0 0.0 0.0 0.0 0.0 0.0 0.0 0.0 0.0 0.0
0.0 0.0 0.0 0.0 0.0 0.0 0.0 0.0 0.0 0.0 0.0 0.0 0.0 0.0 0.0 0.0 0.0 0.0 0.0 0.0 0.0 0.0 0.0 0.0 0.0 0.0 0.0 0.0 0.0 0.0 0.0 0.0 0.0 0.0 0.0 0.0 0.0 0.0 0.0 0.0 0.0 0.0 0.0
0.0 0.0 0.0 0.0 0.0 0.0 0.0 0.0 0.0 0.0 0.0 0.0 0.0 0.0 0.0 0.0 0.0 0.0 0.0 0.0 0.0 0.0 0.0 0.0 0.0 0.0 0.0 0.0 0.0 0.0 0.0 0.0 0.0 0.0 0.0 0.0 0.0 0.0 0.0 0.0 0.0 0.0 0.0
0.0 0.0 0.0 0.0 0.0 0.0 0.0 0.0 0.0 0.0 0.0 0.0 0.0 0.0 2.8 0.0 0.0 0.0 0.0 0.0 0.0 0.0 0.0 0.0 0.0 0.0 0.0 0.0 0.0 0.0 0.0 0.0 0.0 0.0 0.0 0.0 0.0 0.0 0.0 0.0 0.0 0.0 0.0
0.0 0.0 0.0 0.0 0.0 0.0 0.0 0.0 0.0 0.0 0.0 0.0 0.0 0.1 6.7 6.6 3.5 0.0 0.0 0.0 0.0 0.0 0.0 0.0 0.0 0.0 0.0 0.0 0.0 0.0 0.0 0.0 0.0 0.0 0.0 0.0 0.0 0.0 0.0 0.0 0.0 0.0 0.0
0.0 0.0 0.0 0.0 0.0 0.0 0.0 0.0 0.0 0.0 0.0 1.7 0.0 0.0 0.0 1.4 10.8 11.8 0.0 0.0 0.0 0.0 0.0 0.0 0.0 0.0 0.0 0.0 0.0 0.0 0.0 0.0 0.0 0.0 0.0 0.0 0.0 0.0 0.0 0.0 0.0 0.0 0.0
0.0 0.0 0.0 0.0 0.0 0.0 0.0 0.0 0.0 0.0 0.0 0.5 1.1 0.9 2.0 3.7 4.2 10.2 12.7 5.1 0.0 0.0 0.0 0.0 0.0 0.0 0.0 0.0 0.0 0.0 0.0 0.0 0.0 0.0 0.0 0.0 0.0 0.0 0.0 0.0 0.0 0.0 0.0
0.0 0.0 0.0 0.0 0.0 0.0 0.0 0.0 0.0 0.0 0.0 0.0 0.0 0.5 2.7 6.3 8.4 9.3 11.1 8.8 7.0 1.1 0.0 0.0 0.0 0.0 0.0 0.0 0.0 0.0 0.0 0.0 0.0 0.0 0.0 0.0 0.0 0.0 0.0 0.0 0.0 0.0 0.0
0.0 0.0 0.0 0.0 0.0 0.0 0.0 0.0 0.0 0.0 0.0 0.9 0.8 1.3 0.3 2.4 3.9 6.2 8.7 9.5 9.0 3.2 0.2 0.0 0.0 0.0 0.0 0.0 0.0 0.0 0.0 0.0 0.0 0.0 0.0 0.0 0.0 0.0 0.0 0.0 0.0 0.0 0.0
0.0 0.0 0.0 0.0 0.0 0.0 0.0 0.0 0.0 0.0 0.0 1.0 1.4 1.3 1.7 1.4 2.2 4.0 7.6 9.9 12.1 7.6 1.6 0.6 0.0 0.0 0.0 0.0 0.0 0.0 0.0 0.0 0.0 0.0 0.0 0.0 0.0 0.0 0.0 0.0 0.0 0.0 0.0
0.0 0.0 0.0 0.0 0.0 0.0 0.0 0.0 0.8 1.5 1.0 1.5 2.1 2.1 2.6 1.8 2.6 3.3 3.8 5.2 10.0 13.6 10.9 3.3 2.7 0.0 0.0 0.0 0.0 0.0 0.0 0.0 0.0 0.0 0.0 0.0 0.0 0.0 0.0 0.0 0.0 0.0 0.0
0.0 0.0 0.0 0.0 0.0 0.0 0.1 0.9 2.2 1.9 2.7 3.1 2.5 3.3 3.5 3.3 3.4 4.7 5.2 4.3 6.1 9.2 13.1 4.0 1.8 0.0 0.0 0.0 0.0 0.0 0.0 0.0 0.0 0.0 0.0 0.0 0.0 0.0 0.0 0.0 0.0 0.0 0.0
0.0 0.0 0.2 0.9 1.6 2.1 1.9 2.8 3.4 3.4 4.8 5.2 5.0 6.0 6.2 5.1 6.7 6.1 5.2 4.9 5.8 6.2 11.6 6.1 1.7 0.0 0.0 0.0 0.0 0.0 0.0 0.0 0.0 0.0 0.0 0.0 0.0 0.0 0.0 0.0 0.0 0.0 0.0
0.0 0.4 1.0 2.1 2.5 3.0 3.2 4.8 5.7 5.5 7.0 8.2 7.8 8.1 8.6 5.8 7.7 6.6 6.5 6.3 5.8 4.3 7.7 11.0 5.3 3.2 0.4 0.0 0.0 0.0 0.0 0.0 0.0 0.0 0.0 0.0 0.0 0.0 0.0 0.0 0.0 0.0 0.0
1.5 1.5 2.2 3.6 4.3 4.6 5.3 5.4 6.0 6.7 7.3 7.7 7.6 8.0 7.9 7.5 8.9 7.7 6.4 6.7 5.0 3.3 4.8 7.6 8.2 3.0 0.2 0.0 0.0 0.0 0.0 0.0 0.0 0.0 0.0 0.0 0.0 0.0 0.0 0.0 0.0 0.0 0.0
3.4 3.4 3.4 4.2 4.8 5.1 5.7 6.1 6.4 7.6 8.2 7.6 6.7 6.5 6.4 6.7 7.2 7.1 6.4 6.1 4.1 5.5 5.3 6.3 6.5 4.9 1.0 0.0 0.0 0.0 0.9 0.0 0.0 0.0 0.0 0.0 0.0 0.0 0.0 0.0 0.0 0.0 0.0
3.9 3.8 4.7 5.0 5.2 5.4 5.2 6.3 7.3 9.6 9.2 8.8 7.0 5.8 4.8 3.9 3.2 2.9 4.5 6.7 5.4 6.8 7.2 7.0 5.9 4.4 2.3 1.8 0.0 0.5 3.0 0.0 0.0 0.0 0.0 0.0 0.0 0.0 0.0 0.0 0.0 0.0 0.0
4.8 5.0 6.1 6.3 6.8 5.4 4.2 3.4 4.9 9.6 8.6 8.1 8.5 6.0 4.4 4.0 3.4 1.7 1.0 1.2 2.5 6.8 7.0 6.4 6.2 7.3 4.4 0.6 0.0 2.5 4.7 6.5 5.0 0.0 2.5 0.1 0.0 0.0 0.0 0.0 0.0 0.0 0.0
6.0 6.9 6.6 6.5 7.1 5.8 3.2 2.7 3.4 8.3 8.8 8.0 7.6 7.0 6.3 3.6 4.1 4.2 2.9 1.3 0.5 0.0 0.0 3.0 6.1 4.8 5.2 0.0 0.0 2.2 4.6 5.7 7.5 2.6 3.6 0.9 0.0 0.0 0.0 0.0 0.0 0.0 0.0
7.8 7.8 7.5 6.8 6.6 5.6 3.2 3.0 3.5 7.7 7.7 6.8 6.2 6.0 6.5 6.2 5.2 4.9 5.6 5.3 4.0 1.6 0.0 0.0 0.8 0.5 0.0 0.0 0.0 0.3 2.5 5.0 3.8 3.2 3.4 4.0 0.6 0.0 0.0 0.0 0.0 0.0 0.0
8.5 8.3 6.9 7.4 8.1 7.1 4.3 3.5 4.2 7.9 7.5 6.8 4.7 3.8 4.3 5.2 3.5 2.4 5.9 7.1 6.1 3.6 0.0 0.0 0.0 0.0 0.0 0.0 0.0 0.0 4.1 6.7 7.1 5.9 3.9 5.4 2.6 0.1 0.0 0.0 0.0 0.0 0.0
8.3 7.5 8.3 8.0 7.1 7.7 4.1 2.2 2.9 6.3 8.7 7.5 5.2 3.5 1.6 2.1 1.0 1.8 5.2 6.0 8.6 5.7 1.9 1.1 0.0 0.0 0.0 0.0 0.0 0.0 1.7 7.3 7.9 6.6 4.4 5.6 3.0 0.0 1.9 0.0 0.0 0.0 0.0